Location: White Mills Observatory
(37.5374°N, 86.0303°W)
Time: 05:26:34
(UTC-04:00)

Amateur Radio Satellites - All Passes

Search period start: 25 May 2015 04:56
Search period end: 26 May 2015 04:56
Location: White Mills Observatory, 37.5374°N, 86.0303°W

Satellite Date Start Highest point End Downlink Frequencies (MHz)
Time Altitude Azimuth
BEESAT 2 25 May 05:15:09 05:19:10 54° 243° (WSW) 05:23:05 435.950
JAS-2 25 May 05:20:22 05:25:26 54° 100° (E) 05:30:38 435.910
Cosmos 2499 25 May 05:24:24 05:29:06 18° 276° (W) 05:33:29 435.465 / 435.565
SO-50 25 May 05:26:14 05:30:39 40° 307° (NW) 05:35:13 436.795
ITAMSAT 1 25 May 05:31:38 05:35:20 19° 294° (WNW) 05:38:52 435.822/435.867
VERMONT LUNAR 25 May 05:37:38 05:40:46 49° 354° (N) 05:43:54 437.305
PHONESAT 2.4 25 May 05:39:00 05:42:29 88° 164° (SSE) 05:45:58 2401.200-2431.200
HORYU 2 25 May 05:40:00 05:44:27 77° 285° (WNW) 05:48:51 437.375
Gurwin Techsat 1B 25 May 05:57:42 05:59:58 12° 297° (WNW) 06:01:57 435.225
CUBESAT XI-V 25 May 06:05:38 06:07:43 13° 66° (ENE) 06:10:03 437.345
MOZHAYETS 4 25 May 06:07:46 06:12:08 42° 262° (W) 06:16:28
BEESAT 3 25 May 06:09:46 06:10:59 11° 251° (WSW) 06:11:58 437.485
AO-7 25 May 06:15:08 06:23:32 82° 289° (WNW) 06:31:55 29.400- 29.500
Cosmos 2491 25 May 06:15:29 06:20:42 18° 62° (ENE) 06:26:26 435.465 / 435.565
AIST 2 25 May 06:29:05 06:32:50 31° 246° (WSW) 06:36:28 435.215
STRAND 1 25 May 06:31:34 06:33:26 12° 63° (ENE) 06:35:35 437.568
PRISM 25 May 06:48:26 06:50:53 16° 68° (ENE) 06:53:29 437.425
JAS-2 25 May 07:07:02 07:10:14 16° 295° (WNW) 07:13:14 435.910
YUBILEINY 25 May 07:07:59 07:12:16 15° 80° (E) 07:17:09 435.215
M-CUBED/EXP-1 PRIME 25 May 07:13:22 07:16:48 24° 67° (ENE) 07:20:06 437.505
VERMONT LUNAR 25 May 07:15:02 07:18:13 59° 11° (N) 07:21:22 437.305
PHONESAT 2.4 25 May 07:17:23 07:20:46 49° 358° (N) 07:24:09 2401.200-2431.200
AUBIESAT-1 25 May 07:23:28 07:27:02 27° 68° (ENE) 07:30:26 437.475
ISS 25 May 07:25:24 07:28:22 32° 33° (NNE) 07:31:22 145.825
CUTE-I 25 May 07:27:11 07:31:59 34° 96° (E) 07:36:51 437.470
CUBESAT XI-V 25 May 07:40:13 07:44:43 57° 260° (W) 07:49:17 437.345
Cubesat XI-IV 25 May 07:46:50 07:52:04 53° 100° (E) 07:57:19 437.490
STRAND 1 25 May 08:06:59 08:12:04 76° 259° (WSW) 08:17:12 437.568
AO-7 25 May 08:10:02 08:15:16 18° 306° (NW) 08:20:05 29.400- 29.500
Cosmos 2491 25 May 08:10:08 08:19:02 89° 264° (W) 08:27:50 435.465 / 435.565
PRISM 25 May 08:22:17 08:26:05 36° 262° (W) 08:29:52 437.425
AIST 1 25 May 08:32:20 08:36:08 29° 76° (ENE) 08:39:59
BRITE-PL 25 May 08:44:08 08:48:02 20° 89° (E) 08:52:00 437.365/2234.400
M-CUBED/EXP-1 PRIME 25 May 08:47:51 08:51:34 26° 258° (WSW) 08:55:00 437.505
VERMONT LUNAR 25 May 08:52:22 08:55:21 37° 207° (SSW) 08:58:20 437.305
PHONESAT 2.4 25 May 08:55:37 08:59:06 78° 17° (NNE) 09:02:33 2401.200-2431.200
GOMX 1 25 May 08:57:58 09:00:58 16° 88° (E) 09:04:09 467.674
AUBIESAT-1 25 May 08:58:17 09:01:46 23° 259° (W) 09:04:59 437.475
YUBILEINY 25 May 08:59:14 09:08:03 89° 91° (E) 09:16:50 435.215
ISS 25 May 09:02:01 09:04:42 23° 228° (SW) 09:07:21 145.825
HO-68 25 May 09:05:09 09:09:12 16° 89° (E) 09:13:40 435.675
CUTE-I 25 May 09:07:25 09:11:59 28° 292° (WNW) 09:16:27 437.470
Cubesat XI-IV 25 May 09:28:03 09:31:48 19° 295° (WNW) 09:35:23 437.490
Cosmos 2504 25 May 09:40:37 09:44:10 14° 82° (E) 09:48:12 435.465 / 435.565
RS-15 25 May 09:42:27 09:52:41 51° 111° (ESE) 10:03:15 29.354- 29.394
CANX-2 25 May 09:52:42 09:56:30 33° 96° (E) 10:00:19 2200.000
CUTE 1.7 + AOD 2 25 May 09:56:34 10:00:22 33° 96° (E) 10:04:11 437.475
CINEMA 3 25 May 10:01:04 10:04:19 19° 91° (E) 10:07:37 145.822/145.860
PCSat 25 May 10:06:58 10:09:24 13° 43° (NE) 10:12:03 145.827
DOVE 4 25 May 10:07:08 10:12:08 49° 98° (E) 10:16:50 437.250
Cosmos 2491 25 May 10:09:49 10:14:49 16° 280° (W) 10:19:12 435.465 / 435.565
AIST 1 25 May 10:10:20 10:13:38 20° 271° (W) 10:16:49
UNISAT 6 25 May 10:19:16 10:21:29 14° 66° (ENE) 10:23:55 437.425
BRITE-PL 25 May 10:21:23 10:26:54 52° 287° (WNW) 10:32:10 437.365/2234.400
SEEDS 25 May 10:22:09 10:26:15 54° 100° (E) 10:30:20 437.485
UWE-3 25 May 10:22:51 10:23:58 11° 88° (E) 10:25:23 435.000/436.395/437.385
PHONESAT 2.4 25 May 10:34:03 10:37:01 26° 210° (SSW) 10:39:57 2401.200-2431.200
GOMX 1 25 May 10:34:16 10:39:37 59° 286° (WNW) 10:44:38 467.674
FUNcube-1 25 May 10:37:44 10:39:29 13° 89° (E) 10:41:27 145.935
COMPASS 1 25 May 10:38:36 10:42:45 69° 101° (E) 10:46:52 437.405
QB50P1 25 May 10:46:57 10:47:33 10° 65° (ENE) 10:48:24 145.935-145.965
POLYITAN 1 25 May 10:47:23 10:48:24 11° 65° (ENE) 10:49:41 437.675
HO-68 25 May 10:50:38 10:57:48 80° 287° (WNW) 11:04:56 435.675
AAUSAT CUBESAT 2 25 May 10:52:28 10:56:37 87° 101° (E) 11:00:45 437.432
ANTELSAT 25 May 11:00:13 11:04:30 37° 72° (ENE) 11:08:49 437.575/2403.000
YUBILEINY 25 May 11:00:35 11:06:16 17° 298° (WNW) 11:11:26 435.215
CUBEBUG 2 25 May 11:05:11 11:09:29 46° 98° (E) 11:13:38 437.445
ZACube-1 25 May 11:15:37 11:19:37 36° 97° (E) 11:23:33 437.345
NANOSAT C BR1 25 May 11:16:09 11:19:25 23° 70° (ENE) 11:22:50 145.865
UKube-1 25 May 11:22:20 11:25:18 18° 93° (E) 11:28:24 .
QB50P2 25 May 11:22:20 11:25:56 27° 71° (ENE) 11:29:37 145.880/145.840
HUMSAT D 25 May 11:26:23 11:29:28 21° 93° (E) 11:32:38 437.325/437.525
DX 1 25 May 11:27:46 11:31:14 23° 95° (E) 11:34:47 434.975-435.025
Cosmos 2504 25 May 11:28:13 11:36:44 86° 95° (E) 11:44:40 435.465 / 435.565
CANX-2 25 May 11:29:16 11:32:14 18° 291° (WNW) 11:35:03 2200.000
Oscar 11 25 May 11:32:25 11:36:44 75° 284° (WNW) 11:41:00 145.826/435.025
DELFI C3 25 May 11:32:54 11:36:55 82° 101° (E) 11:40:56 145.870
CUTE 1.7 + AOD 2 25 May 11:33:06 11:36:05 18° 291° (WNW) 11:38:56 437.475
TIGRISAT 25 May 11:33:30 11:38:13 82° 77° (ENE) 11:42:54 435.000
POPSAT HIP 1 25 May 11:34:45 11:38:40 36° 72° (ENE) 11:42:39 437.405
VELOX 1 25 May 11:35:22 11:37:30 14° 90° (E) 11:39:52 145.980
CINEMA 3 25 May 11:37:19 11:41:45 38° 288° (WNW) 11:45:55 145.822/145.860
DUCHIFAT 1 25 May 11:38:16 11:42:13 39° 73° (ENE) 11:46:14 145.980
DOVE 4 25 May 11:45:56 11:49:27 18° 294° (WNW) 11:52:42 437.250
PCSat 25 May 11:48:17 11:53:44 84° 60° (ENE) 11:59:10 145.827
UNISAT 6 25 May 11:53:11 11:57:50 59° 260° (W) 12:02:27 437.425
RS-15 25 May 11:54:55 12:05:17 45° 314° (NW) 12:15:50 29.354- 29.394
UWE-3 25 May 11:56:40 12:01:00 55° 285° (WNW) 12:05:10 435.000/436.395/437.385
SEEDS 25 May 12:00:06 12:01:38 12° 294° (WNW) 12:02:57 437.485
AISAT 25 May 12:04:49 12:08:48 31° 96° (E) 12:12:47 437.250
BUGSAT 1 25 May 12:09:56 12:14:00 63° 75° (ENE) 12:18:09 437.445
FUNcube-1 25 May 12:12:01 12:16:12 48° 286° (WNW) 12:20:16 145.935
QB50P1 25 May 12:18:40 12:22:55 66° 259° (W) 12:27:11 145.935-145.965
JUGNU 25 May 12:19:32 12:20:44 11° 171° (S) 12:22:02 437.505
POLYITAN 1 25 May 12:19:34 12:23:50 63° 259° (W) 12:28:08 437.675
SO-50 25 May 12:20:03 12:22:59 16° 42° (NE) 12:26:04 436.795
ANTELSAT 25 May 12:37:52 12:41:24 20° 267° (W) 12:44:48 437.575/2403.000
HO-68 25 May 12:40:55 12:44:34 14° 304° (WNW) 12:47:49 435.675
CUBEBUG 2 25 May 12:43:10 12:45:47 15° 294° (WNW) 12:48:12 437.445
50 SAT 25 May 12:48:43 12:52:36 67° 284° (WNW) 12:56:24 437.505
NANOSAT C BR1 25 May 12:51:28 12:55:09 27° 265° (W) 12:58:49 145.865
CUSAT 1 25 May 12:51:32 12:55:59 18° 81° (E) 13:01:14 437.405
ZACube-1 25 May 12:52:47 12:55:43 18° 292° (WNW) 12:58:29 437.345
UKube-1 25 May 12:57:35 13:01:34 34° 288° (WNW) 13:05:28 .
QB50P2 25 May 12:58:23 13:01:50 23° 266° (W) 13:05:11 145.880/145.840
HUMSAT D 25 May 13:01:40 13:05:16 27° 289° (WNW) 13:08:44 437.325/437.525
DX 1 25 May 13:03:42 13:07:29 28° 290° (WNW) 13:11:12 434.975-435.025
ESTCUBE 1 25 May 13:05:16 13:09:50 84° 106° (ESE) 13:14:22 437.505/2401.250
VELOX 1 25 May 13:10:03 13:14:24 49° 287° (WNW) 13:18:42 145.980
POPSAT HIP 1 25 May 13:11:51 13:14:42 17° 268° (W) 13:17:26 437.405
CUBEBUG 1 25 May 13:13:34 13:18:03 89° 283° (WNW) 13:22:29 437.445
DUCHIFAT 1 25 May 13:15:34 13:18:14 16° 268° (W) 13:20:45 145.980
Oscar 19 25 May 13:19:34 13:23:10 20° 66° (ENE) 13:26:56 437.125/150
Cosmos 2504 25 May 13:25:51 13:31:11 17° 295° (WNW) 13:35:50 435.465 / 435.565
GONETS M04 25 May 13:29:08 13:36:27 32° 86° (E) 13:44:02
PCSat 25 May 13:34:59 13:36:32 11° 256° (WSW) 13:37:42 145.827
AISAT 25 May 13:41:41 13:45:14 23° 291° (WNW) 13:48:40 437.250
DANDE 25 May 13:47:51 13:53:58 39° 88° (E) 14:01:24 436.750
Gurwin Techsat 1B 25 May 13:58:15 14:00:18 13° 63° (ENE) 14:02:39 435.225
SO-50 25 May 13:59:12 14:04:10 76° 241° (WSW) 14:09:02 436.795
SPROUT 25 May 13:59:38 14:04:00 82° 101° (ESE) 14:08:19 437.525
JUGNU 25 May 14:06:13 14:08:55 13° 181° (S) 14:11:38 437.505
RS-15 25 May 14:14:50 14:21:47 17° 345° (NNW) 14:28:38 29.354- 29.394
TISAT 1 25 May 14:30:14 14:34:28 61° 286° (WNW) 14:38:39 437.305
CUSAT 1 25 May 14:30:36 14:37:36 82° 280° (W) 14:45:54 437.405
ITUPSAT 1 25 May 14:30:42 14:33:56 18° 92° (E) 14:37:19 437.325
BEESAT 25 May 14:39:11 14:42:55 23° 94° (E) 14:46:45 436.000
SWISSCUBE 25 May 14:47:03 14:51:14 31° 96° (E) 14:55:29 437.505
Oscar 19 25 May 14:57:12 15:02:12 47° 261° (W) 15:07:13 437.125/150
ITAMSAT 1 25 May 15:07:08 15:12:12 62° 74° (ENE) 15:17:20 435.822/435.867
SRMSAT 25 May 15:19:57 15:22:37 13° 178° (S) 15:25:19 437.500
AO-7 25 May 15:21:42 15:27:49 25° 58° (ENE) 15:34:14 29.400- 29.500
GONETS M04 25 May 15:24:24 15:32:59 52° 284° (WNW) 15:41:32
DANDE 25 May 15:30:40 15:37:10 41° 290° (WNW) 15:44:49 436.750
JAS-2 25 May 15:31:15 15:36:02 22° 67° (ENE) 15:40:38 435.910
Gurwin Techsat 1B 25 May 15:34:23 15:39:41 79° 257° (WSW) 15:45:02 435.225
JUGNU 25 May 15:56:24 15:57:06 10° 190° (S) 15:57:42 437.505
Cosmos 2499 25 May 16:02:46 16:10:48 58° 93° (E) 16:18:18 435.465 / 435.565
ITUPSAT 1 25 May 16:07:32 16:12:03 41° 288° (WNW) 16:16:31 437.325
BEESAT 25 May 16:16:33 16:20:50 33° 289° (WNW) 16:25:03 436.000
CUSAT 1 25 May 16:17:13 16:21:54 16° 302° (WNW) 16:26:27 437.405
STARS 25 May 16:20:08 16:23:57 28° 96° (E) 16:27:48 437.465
SWISSCUBE 25 May 16:25:04 16:29:00 25° 291° (WNW) 16:32:51 437.505
RS-15 25 May 16:32:48 16:40:22 20° 21° (NNE) 16:48:29 29.354- 29.394
HORYU 2 25 May 16:36:01 16:40:30 77° 76° (ENE) 16:45:00 437.375
KKS-1 25 May 16:47:36 16:52:06 82° 284° (WNW) 16:56:33 437.445
ITAMSAT 1 25 May 16:49:27 16:52:13 14° 270° (W) 16:54:42 435.822/435.867
O/OREOS (USA 219) 25 May 17:03:01 17:07:32 89° 111° (ESE) 17:12:04 437.305
SRMSAT 25 May 17:08:56 17:10:58 12° 188° (S) 17:12:56 437.500
AO-7 25 May 17:11:40 17:19:57 74° 256° (WSW) 17:28:17 29.400- 29.500
JAS-2 25 May 17:14:01 17:20:52 59° 259° (W) 17:26:55 435.910
STARS 25 May 17:56:44 18:00:18 23° 291° (WNW) 18:03:44 437.465
Cosmos 2499 25 May 17:57:45 18:04:24 26° 290° (WNW) 18:10:26 435.465 / 435.565
MOZHAYETS 4 25 May 18:04:33 18:09:00 51° 99° (E) 18:13:28
BEESAT 3 25 May 18:21:45 18:24:15 16° 111° (ESE) 18:26:54 437.485
RS-15 25 May 18:45:06 18:56:23 54° 50° (NE) 19:08:13 29.354- 29.394
CUTE-I 25 May 18:47:07 18:52:07 46° 72° (ENE) 18:57:12 437.470
BEESAT 2 25 May 19:06:48 19:10:40 43° 116° (ESE) 19:14:37 435.950
Cubesat XI-IV 25 May 19:06:56 19:12:11 72° 75° (ENE) 19:17:31 437.490
AO-7 25 May 19:11:34 19:14:20 11° 274° (W) 19:16:19 29.400- 29.500
YUBILEINY 25 May 19:12:16 19:20:14 40° 73° (ENE) 19:28:20 435.215
Cosmos 2491 25 May 19:15:08 19:20:58 21° 82° (E) 19:27:15 435.465 / 435.565
HO-68 25 May 19:35:22 19:36:59 11° 54° (NE) 19:39:05 435.675
CUBESAT XI-V 25 May 19:38:49 19:43:15 40° 98° (E) 19:47:41 437.345
MOZHAYETS 4 25 May 19:43:16 19:45:51 15° 293° (WNW) 19:48:14
BRITE-PL 25 May 19:53:21 19:56:33 18° 65° (ENE) 20:00:05 437.365/2234.400
BEESAT 3 25 May 19:58:07 20:01:57 39° 306° (NW) 20:05:50 437.485
GOMX 1 25 May 20:04:29 20:07:06 15° 64° (ENE) 20:10:01 467.674
PRISM 25 May 20:06:19 20:10:03 32° 97° (E) 20:13:50 437.425
STRAND 1 25 May 20:19:36 20:24:28 42° 98° (E) 20:29:21 437.568
AIST 2 25 May 20:24:19 20:28:34 86° 120° (ESE) 20:32:53 435.215
CUTE-I 25 May 20:28:33 20:32:29 20° 268° (W) 20:36:15 437.470
M-CUBED/EXP-1 PRIME 25 May 20:31:09 20:33:30 18° 100° (E) 20:35:56 437.505
AUBIESAT-1 25 May 20:40:36 20:43:10 21° 101° (E) 20:45:46 437.475
CANX-2 25 May 20:44:26 20:47:28 20° 70° (ENE) 20:50:38 2200.000
BEESAT 2 25 May 20:46:06 20:49:00 18° 313° (NW) 20:51:48 435.950
CUTE 1.7 + AOD 2 25 May 20:48:15 20:51:15 20° 70° (ENE) 20:54:24 437.475
Cubesat XI-IV 25 May 20:50:39 20:52:57 12° 272° (W) 20:54:54 437.490
RS-15 25 May 20:57:52 21:08:47 45° 250° (WSW) 21:19:51 29.354- 29.394
AIST 1 25 May 21:00:41 21:03:34 18° 89° (E) 21:06:35
CINEMA 3 25 May 21:01:03 21:04:04 17° 66° (ENE) 21:07:16 145.822/145.860
Cosmos 2491 25 May 21:08:15 21:17:02 74° 279° (W) 21:25:53 435.465 / 435.565
YUBILEINY 25 May 21:09:08 21:17:06 41° 272° (W) 21:24:55 435.215
DOVE 4 25 May 21:10:06 21:14:48 41° 72° (ENE) 21:19:45 437.250
SEEDS 25 May 21:12:30 21:16:10 30° 72° (ENE) 21:19:53 437.485
HO-68 25 May 21:16:28 21:23:32 64° 71° (ENE) 21:30:39 435.675
CUBESAT XI-V 25 May 21:17:05 21:20:25 19° 292° (WNW) 21:23:37 437.345
Cosmos 2504 25 May 21:24:20 21:29:53 24° 69° (ENE) 21:35:37 435.465 / 435.565
COMPASS 1 25 May 21:27:58 21:31:47 35° 73° (ENE) 21:35:38 437.405
BRITE-PL 25 May 21:29:40 21:34:33 55° 262° (W) 21:39:50 437.365/2234.400
GOMX 1 25 May 21:39:34 21:44:35 69° 260° (W) 21:49:57 467.674
AAUSAT CUBESAT 2 25 May 21:41:14 21:45:11 43° 74° (ENE) 21:49:10 437.432
PRISM 25 May 21:42:22 21:45:19 18° 291° (WNW) 21:48:07 437.425
STRAND 1 25 May 21:59:31 22:03:25 22° 293° (WNW) 22:07:11 437.568
CUBEBUG 2 25 May 22:01:08 22:05:21 33° 72° (ENE) 22:09:38 437.445
M-CUBED/EXP-1 PRIME 25 May 22:05:55 22:08:21 19° 294° (WNW) 22:10:42 437.505
AIST 2 25 May 22:06:22 22:07:49 11° 318° (NW) 22:09:06 435.215
ZACube-1 25 May 22:09:42 22:13:25 25° 70° (ENE) 22:17:14 437.345
AUBIESAT-1 25 May 22:15:39 22:17:53 17° 295° (WNW) 22:20:02 437.475
UKube-1 25 May 22:16:34 22:18:30 13° 66° (ENE) 22:20:40 .
HUMSAT D 25 May 22:17:33 22:19:29 13° 67° (ENE) 22:21:37 437.325/437.525
DELFI C3 25 May 22:18:24 22:22:05 36° 73° (ENE) 22:25:49 145.870
CANX-2 25 May 22:19:23 22:23:13 31° 264° (W) 22:27:01 2200.000
DX 1 25 May 22:22:21 22:25:03 17° 67° (ENE) 22:27:54 434.975-435.025
CUTE 1.7 + AOD 2 25 May 22:23:10 22:27:00 31° 264° (W) 22:30:48 437.475
Oscar 11 25 May 22:24:57 22:29:15 65° 76° (ENE) 22:33:33 145.826/435.025
VELOX 1 25 May 22:33:12 22:33:44 10° 64° (ENE) 22:34:33 145.980
CINEMA 3 25 May 22:35:58 22:40:48 55° 261° (W) 22:45:46 145.822/145.860
AIST 1 25 May 22:37:15 22:41:01 30° 284° (WNW) 22:44:46
DOVE 4 25 May 22:48:47 22:52:44 22° 269° (W) 22:56:41 437.250
SEEDS 25 May 22:48:50 22:52:02 20° 267° (W) 22:55:06 437.485
UWE-3 25 May 22:50:59 22:55:41 89° 257° (WSW) 23:00:23 435.000/436.395/437.385
AISAT 25 May 23:01:12 23:04:37 23° 69° (ENE) 23:08:09 437.250
COMPASS 1 25 May 23:04:53 23:07:37 16° 268° (W) 23:10:12 437.405
FUNcube-1 25 May 23:04:57 23:09:33 82° 257° (WSW) 23:14:09 145.935
HO-68 25 May 23:06:25 23:11:51 22° 268° (W) 23:16:59 435.675
Cosmos 2491 25 May 23:11:45 23:15:52 13° 302° (WNW) 23:19:18 435.465 / 435.565
Cosmos 2504 25 May 23:16:46 23:23:44 53° 268° (W) 23:30:39 435.465 / 435.565
AAUSAT CUBESAT 2 25 May 23:18:57 23:21:04 13° 269° (W) 23:22:59 437.432
TIGRISAT 25 May 23:28:32 23:31:32 19° 92° (E) 23:34:39 435.000
50 SAT 25 May 23:31:09 23:35:02 49° 75° (ENE) 23:38:55 437.505
CUSAT 1 25 May 23:33:46 23:35:48 12° 54° (NE) 23:38:11 437.405
CUBEBUG 2 25 May 23:38:14 23:42:04 23° 267° (W) 23:45:50 437.445
GONETS M04 25 May 23:43:27 23:46:46 13° 58° (ENE) 23:50:48
ZACube-1 25 May 23:45:40 23:49:41 29° 265° (W) 23:53:38 437.345
UNISAT 6 25 May 23:47:39 23:51:35 32° 96° (E) 23:55:27 437.425
UKube-1 25 May 23:50:01 23:54:14 52° 260° (W) 23:58:30 .
HUMSAT D 25 May 23:50:36 23:54:51 52° 261° (W) 23:59:04 437.325/437.525
DELFI C3 25 May 23:55:00 23:57:23 15° 269° (W) 23:59:36 145.870
BUGSAT 1 25 May 23:56:39 23:57:41 11° 89° (E) 23:58:59 437.445
DX 1 25 May 23:56:54 00:01:01 40° 262° (W) 00:05:08 434.975-435.025
ESTCUBE 1 26 May 00:02:52 00:07:16 60° 75° (ENE) 00:11:43 437.505/2401.250
ISS 26 May 00:03:26 00:06:08 25° 133° (SE) 00:08:54 145.825
VELOX 1 26 May 00:05:21 00:09:46 71° 259° (W) 00:14:13 145.980
QB50P1 26 May 00:06:24 00:09:46 23° 94° (E) 00:13:12 145.935-145.965
POLYITAN 1 26 May 00:07:35 00:11:01 24° 94° (E) 00:14:31 437.675
CUBEBUG 1 26 May 00:07:38 00:11:53 58° 75° (ENE) 00:16:13 437.445
ANTELSAT 26 May 00:30:37 00:35:02 79° 283° (WNW) 00:39:19 437.575/2403.000
DANDE 26 May 00:32:50 00:39:30 30° 66° (ENE) 00:45:12 436.750
AISAT 26 May 00:37:08 00:41:03 30° 264° (W) 00:44:58 437.250
NANOSAT C BR1 26 May 00:37:39 00:41:50 53° 100° (E) 00:46:00 145.865
QB50P2 26 May 00:44:36 00:48:53 67° 101° (E) 00:53:07 145.880/145.840
PCSat 26 May 00:47:49 00:50:17 14° 105° (ESE) 00:53:04 145.827
SPROUT 26 May 00:51:44 00:55:52 47° 74° (ENE) 01:00:04 437.525
POPSAT HIP 1 26 May 00:57:12 01:01:31 89° 285° (WNW) 01:05:47 437.405
DUCHIFAT 1 26 May 01:00:15 01:04:32 84° 286° (WNW) 01:08:47 145.980
TIGRISAT 26 May 01:04:28 01:08:27 33° 288° (WNW) 01:12:16 435.000
50 SAT 26 May 01:08:55 01:10:05 11° 270° (W) 01:10:59 437.505
CUSAT 1 26 May 01:13:07 01:20:26 74° 79° (ENE) 01:26:03 437.405
TISAT 1 26 May 01:20:04 01:24:18 76° 77° (ENE) 01:28:34 437.305
UNISAT 6 26 May 01:24:55 01:28:11 20° 292° (WNW) 01:31:17 437.425
BUGSAT 1 26 May 01:29:22 01:33:34 55° 285° (WNW) 01:37:43 437.445
ITUPSAT 1 26 May 01:36:11 01:39:17 18° 67° (ENE) 01:42:33 437.325
GONETS M04 26 May 01:36:47 01:45:35 74° 81° (E) 01:54:18
O/OREOS (USA 219) 26 May 01:37:54 01:39:27 12° 53° (NE) 01:41:14 437.305
ISS 26 May 01:39:34 01:42:30 30° 328° (NNW) 01:45:25 145.825
QB50P1 26 May 01:41:58 01:45:37 27° 289° (WNW) 01:49:11 145.935-145.965
ESTCUBE 1 26 May 01:43:17 01:44:37 11° 271° (W) 01:45:39 437.505/2401.250
POLYITAN 1 26 May 01:43:18 01:46:54 26° 290° (WNW) 01:50:23 437.675
BEESAT 26 May 01:44:11 01:47:45 22° 68° (ENE) 01:51:27 436.000
CUBEBUG 1 26 May 01:47:32 01:48:44 11° 271° (W) 01:49:37 437.445
SWISSCUBE 26 May 01:51:58 01:55:59 29° 70° (ENE) 02:00:06 437.505
Cosmos 2499 26 May 01:58:23 02:01:47 14° 64° (ENE) 02:05:39 435.465 / 435.565
NANOSAT C BR1 26 May 02:15:18 02:17:16 13° 294° (WNW) 02:19:01 145.865
DANDE 26 May 02:15:41 02:23:10 48° 270° (W) 02:29:03 436.750
QB50P2 26 May 02:23:42 02:24:16 10° 295° (WNW) 02:24:35 145.880/145.840
PCSat 26 May 02:27:47 02:33:10 70° 300° (WNW) 02:38:36 145.827
SPROUT 26 May 02:30:07 02:32:18 13° 270° (W) 02:34:14 437.525
CUSAT 1 26 May 02:57:58 03:01:57 16° 280° (W) 03:05:10 437.405
VERMONT LUNAR 26 May 03:05:04 03:08:06 39° 154° (SSE) 03:11:08 437.305
Oscar 19 26 May 03:10:32 03:15:42 72° 102° (ESE) 03:20:49 437.125/150
ITUPSAT 1 26 May 03:12:20 03:16:53 44° 261° (W) 03:21:26 437.325
O/OREOS (USA 219) 26 May 03:14:59 03:19:26 66° 252° (WSW) 03:23:51 437.305
STARS 26 May 03:15:39 03:18:55 21° 69° (ENE) 03:22:19 437.465
PHONESAT 2.4 26 May 03:20:10 03:22:22 16° 146° (SE) 03:24:37 2401.200-2431.200
BEESAT 26 May 03:21:03 03:25:25 35° 263° (W) 03:29:45 436.000
ITAMSAT 1 26 May 03:22:29 03:26:44 26° 94° (E) 03:31:06 435.822/435.867
BEESAT 2 26 May 03:28:32 03:31:12 17° 46° (NE) 03:33:57 435.950
SWISSCUBE 26 May 03:29:49 03:33:50 26° 265° (W) 03:37:46 437.505
GONETS M04 26 May 03:35:24 03:41:38 21° 278° (W) 03:47:23
KKS-1 26 May 03:43:33 03:48:00 71° 75° (ENE) 03:52:29 437.445
Cosmos 2499 26 May 03:48:56 03:56:01 83° 264° (W) 04:03:12 435.465 / 435.565
Gurwin Techsat 1B 26 May 03:52:41 03:57:49 49° 99° (E) 04:02:57 435.225
SO-50 26 May 04:11:32 04:16:03 56° 117° (ESE) 04:20:47 436.795
PCSat 26 May 04:15:54 04:17:41 11° 319° (NW) 04:19:13 145.827
BEESAT 3 26 May 04:18:17 04:22:20 64° 58° (ENE) 04:26:19 437.485
JAS-2 26 May 04:26:54 04:29:56 16° 91° (E) 04:33:16 435.910
HORYU 2 26 May 04:30:28 04:33:15 17° 92° (E) 04:36:11 437.375
VERMONT LUNAR 26 May 04:42:05 04:45:16 58° 349° (N) 04:48:26 437.305
AIST 2 26 May 04:48:13 04:51:59 31° 52° (NE) 04:55:42 435.215
